Content
SEND FEEDBACK

Daily
Averages
Monthly
Summary
United States of America

ELSBERRY, MISSOURI


Home > North America > United States > Missouri
Elevation: 437 feet     Latitude: 39 09N     Longitude: 090 46W

WEATHER
 
SELECT A DAY
Number of Records: 166,678;   Date Range: 10/8/98 - 8/12/14
 
SHARE

PRINT THIS DATA

[ ← Previous Day ]
WEATHER ALMANAC - FEBRUARY 13, 2013
[ Next Day → ]
[ °C ]   °F
Weather ElementAverageHighLow
Temperature41.5 °F53.1 °F (2:54 pm)33.1 °F (6:54 am)
Dewpoint29.1 °F30.9 °F (6:54 pm)27 °F (1:54 pm)
Humidity64.3 %82 % (2:54 am)37 % (3:54 pm)
Barometer29.86 in29.93 in (1:54 am)29.81 in (1:54 pm)
Wind Speed6 mph13.8 mph (2:54 pm)
Wind Gust19.6 mph (3:54 pm)
Weather ElementAverage
Visibility9.8 mi
Wind DirectionSSW (209.6 °)

Weather ElementTotal
Precipitation---
Heating Degree Days21.9 (Base 65)
Averaged from 23 records on February 13, 2013
WEATHER CONDITIONS BREAKOUT
WIND DIRECTION BREAKOUT
WEATHER BY HOUR - FEBRUARY 13, 2013
[ °C ]   °F
Local TimeTemperatureDewpointHumidityBarometerVisibilityWind DirectionWind SpeedGust SpeedPrecipitationEventsConditions
1:54 AM36.0 °F30.0 °F79 %29.93 in10.0 miCalmOvercast
2:54 AM35.1 °F30.0 °F82 %29.92 in10.0 miWNW (300°)3.5 mphOvercast
3:54 AM36.0 °F30.0 °F79 %29.89 in10.0 miCalmScattered Clouds
4:54 AM36.0 °F28.0 °F73 %29.88 in10.0 miWest (260°)4.6 mphScattered Clouds
5:54 AM34.0 °F28.0 °F79 %29.88 in10.0 miCalmClear
6:54 AM33.1 °F28.0 °F82 %29.89 in10.0 miWSW (240°)3.5 mphClear
7:54 AM33.1 °F28.0 °F82 %29.90 in8.0 miSSW (210°)3.5 mphClear
8:54 AM37.0 °F30.0 °F76 %29.90 in8.0 miSW (230°)3.5 mphClear
9:54 AM42.1 °F28.0 °F58 %29.89 in10.0 miWest (260°)6.9 mphClear
10:54 AM45.0 °F28.9 °F53 %29.87 in10.0 miWSW (250°)8.1 mphClear
11:54 AM48.9 °F30.0 °F48 %29.86 in10.0 miWSW (250°)8.1 mphClear
12:54 PM51.1 °F28.0 °F41 %29.83 in10.0 miWest (270°)12.7 mphClear
1:54 PM51.1 °F27.0 °F39 %29.81 in10.0 miWest (270°)9.2 mphClear
2:54 PM53.1 °F28.0 °F38 %29.81 in10.0 miWest (280°)13.8 mphClear
3:54 PM53.1 °F27.0 °F37 %29.81 in10.0 miWest (280°)13.8 mph19.6 mphClear
4:54 PM50.0 °F28.0 °F43 %29.82 in10.0 miWest (270°)11.5 mphClear
5:54 PM46.9 °F30.0 °F52 %29.83 in10.0 miWest (270°)5.8 mphClear
6:54 PM42.1 °F30.9 °F65 %29.84 in10.0 miWest (270°)4.6 mphClear
7:54 PM37.9 °F30.9 °F76 %29.85 in10.0 miCalmClear
8:54 PM37.9 °F28.9 °F70 %29.86 in10.0 miSW (230°)5.8 mphClear
9:54 PM39.9 °F30.9 °F70 %29.86 in10.0 miWSW (240°)9.2 mphClear
10:54 PM37.0 °F30.9 °F79 %29.86 in10.0 miSW (230°)6.9 mphClear
11:54 PM37.0 °F30.9 °F79 %29.85 in10.0 miSSW (210°)3.5 mphClear
Hourly data recorded from KSET, located miles away from Elsberry, Missouri







STORIES FROM OUR PARTNERS